Hourly Data Report for September 21, 2019

EUREKA CLIMATE
NUNAVUT
Current Station Operator: ECCC - MSC

79°59'21.000" N
85°56'02.000" W
10.00 m
2401199
71613
NEK

Download Data

Hourly Data (September 2019)
Hourly Data Report for September 21, 2019
TIME
LST
Temp Definition
°C
Dew Point Definition
°C
Rel Hum Definition
%
Precip. Amount Definition
mm

Wind Dir Definition
10's deg

Wind Spd Definition
km/h
Visibility Definition
km
Stn Press Definition
kPa
Hmdx Definition


Wind Chill Definition


Weather Definition


00:00 -10.5 -11.2 95 0.0 2 10   100.85   -16 LegendNANA
01:00 -9.6 -10.1 96 0.0 1 12   100.83   -15 LegendNANA
02:00 -9.0 -9.2 98 0.0 1 12   100.83   -15 LegendNANA
03:00 -9.4 -9.9 97 0.0 2 11   100.85   -15 LegendNANA
04:00 -9.1 -9.5 97 0.0 36 9   100.83   -14 LegendNANA
05:00 -10.0 -10.5 96 0.0 1 13   100.82   -16 LegendNANA
06:00 -9.4 -9.9 96 0.0 3 11   100.79   -15 LegendNANA
07:00 -8.9 -9.3 97 0.0 2 11   100.78   -14 LegendNANA
08:00 -9.1 -9.5 97 0.0 1 13   100.74   -15 LegendNANA
09:00 -8.5 -9.1 96 0.0 36 11   100.72   -14 LegendNANA
10:00 -8.6 -9.1 96 0.0 1 10   100.68   -14 LegendNANA
11:00 -8.3 -8.9 96 0.0 1 10   100.66   -13 LegendNANA
12:00 -7.7 -8.2 96 0.0 36 10   100.65   -13 LegendNANA
13:00 -7.4 -7.7 97 0.0 35 14   100.65   -13 LegendNANA
14:00 -7.5 -7.8 98 0.0 36 11   100.64   -13 LegendNANA
15:00 -7.3 -7.7 97 0.0 36 9   100.63   -12 LegendNANA
16:00 -8.1 -8.6 96 0.0 1 8   100.64   -12 LegendNANA
17:00 -8.3 -8.6 97 0.0 36 11   100.63   -14 LegendNANA
18:00 -9.1 -9.7 95 0.0 1 12   100.59   -15 LegendNANA
19:00 -9.4 -10.0 96 0.0 1 14   100.57   -16 LegendNANA
20:00 -9.3 -9.8 96 0.0 36 13   100.56   -15 LegendNANA
21:00 -9.5 -10.0 96 0.0 1 8   100.53   -14 LegendNANA
22:00 -9.1 -9.5 97 0.0 35 12   100.52   -15 LegendNANA
23:00 -9.1 -9.6 96 0.0 36 13   100.50   -15 LegendNANA

Notes on Data Quality.

Legend

  • E = Estimated
  • M = Missing
  • NA = Not Available*
  • [empty] = Indicates an unobserved value
Date modified: